Location: Colonia Mina de C?rbuni
(46.1667°N, 22.7167°E)
Time: 18:31:16
(UTC+00:00)

S-56A Canister/Altair - All Passes

Search period start: 19 April 2024 00:00
Search period end: 29 April 2024 00:00
Orbit: 639 x 2488 km, 38.9° (Epoch: 19 April)

Date Brightness Start Highest point End Pass type
(mag) Time Alt. Az. Time Alt. Az. Time Alt. Az.
19 Apr - 15:29:32 10° SW 15:34:28 32° SSE 15:41:13 10° E daylight
19 Apr - 17:31:22 10° WSW 17:37:47 52° S 17:47:24 10° ESE daylight
19 Apr - 19:34:19 10° W 19:42:00 45° SSW 19:53:08 10° SE visible
19 Apr - 21:38:43 10° W 21:46:26 25° SSW 21:56:10 10° SSE visible
20 Apr - 14:56:45 10° SSW 15:01:12 27° SSE 15:07:01 10° E daylight
20 Apr - 16:58:20 10° WSW 17:04:16 49° S 17:13:07 10° ESE daylight
20 Apr - 19:01:06 10° W 19:08:18 45° SSW 19:18:52 10° SE visible
20 Apr - 21:05:09 10° W 21:12:38 26° SSW 21:22:21 10° SSE visible
21 Apr - 14:24:02 10° SSW 14:27:58 22° SSE 14:32:53 10° E daylight
21 Apr - 16:25:18 10° WSW 16:30:50 46° S 16:38:54 10° E daylight
21 Apr - 18:27:56 10° W 18:34:39 46° S 18:44:36 10° ESE visible
21 Apr - 20:31:41 10° W 20:38:53 28° SSW 20:48:28 10° SSE visible
22 Apr - 13:51:25 10° S 13:54:46 18° SE 13:58:43 10° ESE daylight
22 Apr - 15:52:17 10° WSW 15:57:27 43° SSE 16:04:46 10° E daylight
22 Apr - 17:54:47 10° W 18:01:04 46° S 18:10:22 10° ESE visible
22 Apr - 19:58:18 10° W 20:05:11 29° SSW 20:14:30 10° SSE visible
22 Apr - 22:07:06 10° SW 22:09:13 11° SW 22:11:28 10° SSW visible
23 Apr - 13:18:57 10° S 13:21:35 15° SE 13:24:30 10° ESE daylight
23 Apr - 15:19:18 10° SW 15:24:06 39° SSE 15:30:42 10° E daylight
23 Apr - 17:21:41 10° WSW 17:27:33 46° S 17:36:10 10° ESE daylight
23 Apr - 19:24:59 10° W 19:31:30 30° SSW 19:40:31 10° SSE visible
23 Apr - 21:32:11 10° WSW 21:35:32 12° SW 21:39:14 10° SSW visible
24 Apr - 12:46:52 10° SSE 12:48:24 11° SE 12:50:00 10° SE daylight
24 Apr - 14:46:21 10° SW 14:50:49 35° SSE 14:56:42 10° E daylight
24 Apr - 16:48:36 10° WSW 16:54:04 45° S 17:02:02 10° ESE daylight
24 Apr - 18:51:43 10° W 18:57:54 31° SSW 19:06:29 10° SE visible
24 Apr - 20:57:56 10° WSW 21:01:51 13° SW 21:06:19 10° SSW visible
25 Apr - 14:13:23 10° SW 14:17:33 31° SSE 14:22:47 10° E daylight
25 Apr - 16:15:31 10° WSW 16:20:40 44° S 16:27:57 10° ESE daylight
25 Apr - 18:18:30 10° W 18:24:19 32° SSW 18:32:28 10° SE visible
25 Apr - 20:24:01 10° WSW 20:28:13 14° SSW 20:33:08 10° S visible
26 Apr - 13:40:26 10° SW 13:44:19 27° SSE 13:48:56 10° ESE daylight
26 Apr - 15:42:27 10° WSW 15:47:17 42° S 15:53:57 10° ESE daylight
26 Apr - 17:45:20 10° WSW 17:50:49 32° SSW 17:58:28 10° SE daylight
26 Apr - 19:50:17 10° WSW 19:54:36 15° SSW 19:59:45 10° S visible
27 Apr - 13:07:30 10° SSW 13:11:06 23° SSE 13:15:10 10° ESE daylight
27 Apr - 15:09:22 10° WSW 15:13:57 40° S 15:20:02 10° ESE daylight
27 Apr - 17:12:10 10° WSW 17:17:20 33° SSW 17:24:30 10° SE daylight
27 Apr - 19:16:42 10° WSW 19:21:02 16° SSW 19:26:16 10° S visible
28 Apr - 12:34:35 10° SSW 12:37:52 20° SSE 12:41:25 10° ESE daylight
28 Apr - 14:36:18 10° WSW 14:40:39 38° S 14:46:11 10° ESE daylight
28 Apr - 16:39:02 10° WSW 16:43:55 33° SSW 16:50:34 10° SE daylight
28 Apr - 18:43:15 10° WSW 18:47:29 17° SSW 18:52:43 10° S visible
